Find Gorizont

NORAD ID: 13092 Int'l Des: 1982-020 Owner: MSVYAZ Country: SU operational
HEOCIRCULAR

Current View

Loading 3D Globe...

About Gorizont

Description loading...

Upcoming Passes

Passes for default location (London). Set your location on the main map for personalized predictions.

Altitude History

Loading altitude history...

Two-Line Element Set

1 13092U 82020A 26149.57884150 -.00000131 00000-0 00000-0 0 9993
2 13092 8.3873 301.2923 0032751 257.8242 269.8060 0.98533545121416
Epoch: May 29, 2026 • Age: 17 hours

Current Status

Altitude 36408.8 km
Velocity 3.05 km/s
Sub-Earth Point 6.93°N, 8.89°E
Launch Date Mar 15, 1982
Age 44.2 years
Type other

Technical Details

Classification Payload
Mass 2120.00 kg
Dry Mass 2000.00 kg
Total Mass 2120.00 kg
Length 5.50 m
Diameter 3.30 m
Span 9.50 m
Shape Cyl + 2 Pan
Manufacturer NPOPM
Bus Type Gorizont
Phase Status In Orbit
Owner/State MSVYAZ/SU

Most Searched